Time,TemperatureF,DewpointF,PressureIn,WindDirection,WindDirectionDegrees,WindSpeedMPH,WindSpeedGustMPH,Humidity,HourlyPrecipIn,Conditions,Clouds,dailyrainin,SoftwareType,DateUTC
2013-04-26 00:01:00,54.7,35.4,30.28,North,360,3.0,6.0,48,0.00,,---,0.00,VWS V14.01,2013-04-26 04:01:00,
2013-04-26 00:02:00,54.7,35.4,30.28,North,360,4.0,6.0,48,0.00,,---,0.00,VWS V14.01,2013-04-26 04:02:00,
2013-04-26 00:03:00,54.7,34.9,30.28,North,360,4.0,6.0,47,0.00,,---,0.00,VWS V14.01,2013-04-26 04:03:00,
2013-04-26 00:08:00,54.8,35.0,30.28,North,360,3.0,5.0,47,0.00,,---,0.00,VWS V14.01,2013-04-26 04:08:00,
2013-04-26 00:13:00,54.6,34.8,30.28,North,360,2.0,5.0,47,0.00,,---,0.00,VWS V14.01,2013-04-26 04:13:00,
2013-04-26 00:18:00,54.4,35.1,30.29,North,360,1.0,5.0,48,0.00,,---,0.00,VWS V14.01,2013-04-26 04:18:00,
2013-04-26 00:23:00,54.2,35.0,30.29,North,360,2.0,5.0,48,0.00,,---,0.00,VWS V14.01,2013-04-26 04:23:00,
2013-04-26 00:28:00,54.0,35.3,30.29,North,360,2.0,5.0,49,0.00,,---,0.00,VWS V14.01,2013-04-26 04:28:00,
2013-04-26 00:33:00,54.0,34.8,30.29,North,360,2.0,5.0,48,0.00,,---,0.00,VWS V14.01,2013-04-26 04:33:00,
2013-04-26 00:38:00,54.2,34.4,30.29,North,360,3.0,5.0,47,0.00,,---,0.00,VWS V14.01,2013-04-26 04:38:00,
2013-04-26 00:43:00,54.4,34.1,30.29,North,360,3.0,5.0,46,0.00,,---,0.00,VWS V14.01,2013-04-26 04:43:00,
2013-04-26 00:48:00,54.6,34.2,30.30,North,360,2.0,5.0,46,0.00,,---,0.00,VWS V14.01,2013-04-26 04:48:00,
2013-04-26 00:53:00,54.8,34.4,30.30,North,360,5.0,7.0,46,0.00,,---,0.00,VWS V14.01,2013-04-26 04:53:00,
2013-04-26 00:58:00,54.9,34.0,30.30,North,360,4.0,7.0,45,0.00,,---,0.00,VWS V14.01,2013-04-26 04:58:00,
2013-04-26 01:03:00,54.8,34.4,30.31,North,360,3.0,7.0,46,0.00,,---,0.00,VWS V14.01,2013-04-26 05:03:00,
2013-04-26 01:08:00,54.5,34.7,30.30,North,360,3.0,7.0,47,0.00,,---,0.00,VWS V14.01,2013-04-26 05:08:00,
2013-04-26 01:14:00,54.3,34.5,30.31,North,360,4.0,7.0,47,0.00,,---,0.00,VWS V14.01,2013-04-26 05:14:00,
2013-04-26 01:19:00,54.1,34.3,30.31,North,360,5.0,7.0,47,0.00,,---,0.00,VWS V14.01,2013-04-26 05:19:00,
2013-04-26 01:24:00,53.8,34.6,30.31,North,360,3.0,7.0,48,0.00,,---,0.00,VWS V14.01,2013-04-26 05:24:00,
2013-04-26 01:29:00,53.4,34.7,30.31,North,360,4.0,7.0,49,0.00,,---,0.00,VWS V14.01,2013-04-26 05:29:00,
2013-04-26 01:34:00,53.1,34.5,30.31,North,360,6.0,7.0,49,0.00,,---,0.00,VWS V14.01,2013-04-26 05:34:00,
2013-04-26 01:39:00,53.1,35.0,30.31,North,360,5.0,7.0,50,0.00,,---,0.00,VWS V14.01,2013-04-26 05:39:00,
2013-04-26 01:44:00,53.1,34.5,30.31,North,360,5.0,9.0,49,0.00,,---,0.00,VWS V14.01,2013-04-26 05:44:00,
2013-04-26 01:49:00,53.3,34.7,30.31,North,360,4.0,9.0,49,0.00,,---,0.00,VWS V14.01,2013-04-26 05:49:00,
2013-04-26 01:54:00,53.3,34.7,30.31,North,360,6.0,9.0,49,0.00,,---,0.00,VWS V14.01,2013-04-26 05:54:00,
2013-04-26 01:59:00,53.1,35.0,30.31,North,360,4.0,9.0,50,0.00,,---,0.00,VWS V14.01,2013-04-26 05:59:00,
2013-04-26 02:04:00,53.1,35.0,30.31,North,360,3.0,5.0,50,0.00,,---,0.00,VWS V14.01,2013-04-26 06:04:00,
2013-04-26 02:10:00,52.2,35.6,30.31,North,360,2.0,6.0,53,0.00,,---,0.00,VWS V14.01,2013-04-26 06:10:00,
2013-04-26 02:15:00,51.6,35.5,30.31,North,360,2.0,6.0,54,0.00,,---,0.00,VWS V14.01,2013-04-26 06:15:00,
2013-04-26 02:20:00,51.6,35.5,30.31,North,360,3.0,6.0,54,0.00,,---,0.00,VWS V14.01,2013-04-26 06:20:00,
2013-04-26 02:25:00,51.7,35.6,30.31,North,360,2.0,7.0,54,0.00,,---,0.00,VWS V14.01,2013-04-26 06:25:00,
2013-04-26 02:30:00,51.6,35.5,30.31,North,360,5.0,7.0,54,0.00,,---,0.00,VWS V14.01,2013-04-26 06:30:00,
2013-04-26 02:35:00,51.3,35.7,30.31,North,360,5.0,7.0,55,0.00,,---,0.00,VWS V14.01,2013-04-26 06:35:00,
2013-04-26 02:40:00,50.8,36.1,30.31,North,360,4.0,7.0,57,0.00,,---,0.00,VWS V14.01,2013-04-26 06:40:00,
2013-04-26 02:45:00,50.4,35.8,30.31,North,360,2.0,7.0,57,0.00,,---,0.00,VWS V14.01,2013-04-26 06:45:00,
2013-04-26 02:50:00,50.4,35.8,30.31,North,360,2.0,7.0,57,0.00,,---,0.00,VWS V14.01,2013-04-26 06:50:00,
2013-04-26 02:55:00,50.4,36.2,30.31,North,360,5.0,7.0,58,0.00,,---,0.00,VWS V14.01,2013-04-26 06:55:00,
2013-04-26 03:00:00,50.3,36.1,30.31,North,360,6.0,7.0,58,0.00,,---,0.00,VWS V14.01,2013-04-26 07:00:00,
2013-04-26 03:05:00,50.2,36.0,30.31,North,360,5.0,7.0,58,0.00,,---,0.00,VWS V14.01,2013-04-26 07:05:00,
2013-04-26 03:10:00,50.1,35.9,30.31,North,360,4.0,7.0,58,0.00,,---,0.00,VWS V14.01,2013-04-26 07:10:00,
2013-04-26 03:15:00,49.9,35.7,30.32,North,360,5.0,7.0,58,0.00,,---,0.00,VWS V14.01,2013-04-26 07:15:00,
2013-04-26 03:21:00,49.5,35.8,30.32,North,360,3.0,7.0,59,0.00,,---,0.00,VWS V14.01,2013-04-26 07:21:00,
2013-04-26 03:26:00,49.2,35.1,30.31,North,360,4.0,7.0,58,0.00,,---,0.00,VWS V14.01,2013-04-26 07:26:00,
2013-04-26 03:31:00,49.2,35.1,30.31,North,360,4.0,7.0,58,0.00,,---,0.00,VWS V14.01,2013-04-26 07:31:00,
2013-04-26 03:36:00,49.0,34.9,30.31,North,360,4.0,7.0,58,0.00,,---,0.00,VWS V14.01,2013-04-26 07:36:00,
2013-04-26 03:41:00,49.0,34.9,30.31,North,360,3.0,7.0,58,0.00,,---,0.00,VWS V14.01,2013-04-26 07:41:00,
2013-04-26 03:46:00,49.0,34.9,30.31,North,360,3.0,7.0,58,0.00,,---,0.00,VWS V14.01,2013-04-26 07:46:00,
2013-04-26 03:51:00,49.0,34.9,30.32,North,360,2.0,7.0,58,0.00,,---,0.00,VWS V14.01,2013-04-26 07:51:00,
2013-04-26 03:56:00,49.0,34.5,30.32,North,360,3.0,7.0,57,0.00,,---,0.00,VWS V14.01,2013-04-26 07:56:00,
2013-04-26 04:01:00,48.8,34.3,30.32,North,360,3.0,7.0,57,0.00,,---,0.00,VWS V14.01,2013-04-26 08:01:00,
2013-04-26 04:06:00,48.8,34.3,30.32,North,360,5.0,5.0,57,0.00,,---,0.00,VWS V14.01,2013-04-26 08:06:00,
2013-04-26 04:11:00,49.0,34.0,30.32,North,360,3.0,7.0,56,0.00,,---,0.00,VWS V14.01,2013-04-26 08:11:00,
2013-04-26 04:16:00,49.0,34.5,30.32,North,360,7.0,7.0,57,0.00,,---,0.00,VWS V14.01,2013-04-26 08:16:00,
2013-04-26 04:21:00,48.7,34.2,30.32,North,360,3.0,7.0,57,0.00,,---,0.00,VWS V14.01,2013-04-26 08:21:00,
2013-04-26 04:26:00,48.3,34.2,30.32,North,360,4.0,7.0,58,0.00,,---,0.00,VWS V14.01,2013-04-26 08:26:00,
2013-04-26 04:31:00,48.2,34.1,30.32,North,360,5.0,7.0,58,0.00,,---,0.00,VWS V14.01,2013-04-26 08:31:00,
2013-04-26 04:37:00,48.1,34.5,30.32,North,360,4.0,7.0,59,0.00,,---,0.00,VWS V14.01,2013-04-26 08:37:00,
2013-04-26 04:42:00,48.0,34.4,30.33,North,360,4.0,7.0,59,0.00,,---,0.00,VWS V14.01,2013-04-26 08:42:00,
2013-04-26 04:47:00,47.9,34.3,30.33,North,360,5.0,7.0,59,0.00,,---,0.00,VWS V14.01,2013-04-26 08:47:00,
2013-04-26 04:52:00,47.8,34.2,30.33,North,360,5.0,7.0,59,0.00,,---,0.00,VWS V14.01,2013-04-26 08:52:00,
2013-04-26 04:57:00,47.7,34.5,30.33,North,360,5.0,7.0,60,0.00,,---,0.00,VWS V14.01,2013-04-26 08:57:00,
2013-04-26 05:02:00,47.5,34.7,30.33,North,360,5.0,7.0,61,0.00,,---,0.00,VWS V14.01,2013-04-26 09:02:00,
2013-04-26 05:07:00,47.3,34.5,30.33,North,360,3.0,6.0,61,0.00,,---,0.00,VWS V14.01,2013-04-26 09:07:00,
2013-04-26 05:12:00,47.4,34.2,30.33,North,360,5.0,6.0,60,0.00,,---,0.00,VWS V14.01,2013-04-26 09:12:00,
2013-04-26 05:17:00,47.2,34.5,30.33,North,360,4.0,6.0,61,0.00,,---,0.00,VWS V14.01,2013-04-26 09:17:00,
2013-04-26 05:22:00,47.1,34.4,30.33,North,360,3.0,6.0,61,0.00,,---,0.00,VWS V14.01,2013-04-26 09:22:00,
2013-04-26 05:27:00,47.2,34.5,30.33,North,360,5.0,7.0,61,0.00,,---,0.00,VWS V14.01,2013-04-26 09:27:00,
2013-04-26 05:32:00,47.3,34.1,30.33,North,360,2.0,7.0,60,0.00,,---,0.00,VWS V14.01,2013-04-26 09:32:00,
2013-04-26 05:37:00,47.3,34.1,30.33,North,360,3.0,7.0,60,0.00,,---,0.00,VWS V14.01,2013-04-26 09:37:00,
2013-04-26 05:42:00,47.2,34.5,30.33,North,360,1.0,7.0,61,0.00,,---,0.00,VWS V14.01,2013-04-26 09:42:00,
2013-04-26 05:47:00,46.8,34.1,30.33,North,360,3.0,7.0,61,0.00,,---,0.00,VWS V14.01,2013-04-26 09:47:00,
2013-04-26 05:52:00,46.6,34.3,30.34,North,360,3.0,7.0,62,0.00,,---,0.00,VWS V14.01,2013-04-26 09:52:00,
2013-04-26 05:58:00,46.4,34.5,30.34,North,360,2.0,7.0,63,0.00,,---,0.00,VWS V14.01,2013-04-26 09:58:00,
2013-04-26 06:03:00,45.8,34.3,30.34,North,360,3.0,3.0,64,0.00,,---,0.00,VWS V14.01,2013-04-26 10:03:00,
2013-04-26 06:08:00,45.7,34.2,30.34,North,360,3.0,4.0,64,0.00,,---,0.00,VWS V14.01,2013-04-26 10:08:00,
2013-04-26 06:13:00,45.8,33.9,30.34,North,360,2.0,4.0,63,0.00,,---,0.00,VWS V14.01,2013-04-26 10:13:00,
2013-04-26 06:18:00,45.8,34.3,30.35,North,360,3.0,4.0,64,0.00,,---,0.00,VWS V14.01,2013-04-26 10:18:00,
2013-04-26 06:23:00,45.9,33.6,30.35,North,360,3.0,5.0,62,0.00,,---,0.00,VWS V14.01,2013-04-26 10:23:00,
2013-04-26 06:28:00,46.0,33.7,30.35,North,360,3.0,5.0,62,0.00,,---,0.00,VWS V14.01,2013-04-26 10:28:00,
2013-04-26 06:33:00,46.1,33.0,30.35,North,360,3.0,5.0,60,0.00,,---,0.00,VWS V14.01,2013-04-26 10:33:00,
2013-04-26 06:38:00,46.3,33.2,30.35,North,360,4.0,6.0,60,0.00,,---,0.00,VWS V14.01,2013-04-26 10:38:00,
2013-04-26 06:43:00,46.4,32.9,30.36,North,360,2.0,6.0,59,0.00,,---,0.00,VWS V14.01,2013-04-26 10:43:00,
2013-04-26 06:48:00,46.5,33.0,30.36,North,360,0.0,6.0,59,0.00,,---,0.00,VWS V14.01,2013-04-26 10:48:00,
2013-04-26 06:53:00,46.5,33.0,30.37,North,360,3.0,6.0,59,0.00,,---,0.00,VWS V14.01,2013-04-26 10:53:00,
2013-04-26 06:58:00,46.7,33.2,30.37,North,360,3.0,6.0,59,0.00,,---,0.00,VWS V14.01,2013-04-26 10:58:00,
2013-04-26 07:04:00,47.0,32.6,30.37,North,360,4.0,4.0,57,0.00,,---,0.00,VWS V14.01,2013-04-26 11:04:00,
2013-04-26 07:09:00,47.4,33.0,30.38,North,360,4.0,4.0,57,0.00,,---,0.00,VWS V14.01,2013-04-26 11:09:00,
2013-04-26 07:14:00,47.9,32.5,30.38,North,360,4.0,6.0,55,0.00,,---,0.00,VWS V14.01,2013-04-26 11:14:00,
2013-04-26 07:19:00,48.4,32.5,30.38,North,360,4.0,9.0,54,0.00,,---,0.00,VWS V14.01,2013-04-26 11:19:00,
2013-04-26 07:24:00,48.9,32.1,30.38,North,360,7.0,9.0,52,0.00,,---,0.00,VWS V14.01,2013-04-26 11:24:00,
2013-04-26 07:29:00,49.4,32.5,30.38,North,360,5.0,11.0,52,0.00,,---,0.00,VWS V14.01,2013-04-26 11:29:00,
2013-04-26 07:34:00,49.6,32.7,30.39,North,360,10.0,11.0,52,0.00,,---,0.00,VWS V14.01,2013-04-26 11:34:00,
2013-04-26 07:39:00,49.9,33.0,30.39,North,360,8.0,11.0,52,0.00,,---,0.00,VWS V14.01,2013-04-26 11:39:00,
2013-04-26 07:44:00,50.1,32.7,30.39,North,360,8.0,12.0,51,0.00,,---,0.00,VWS V14.01,2013-04-26 11:44:00,
2013-04-26 07:49:00,50.5,33.1,30.40,North,360,5.0,12.0,51,0.00,,---,0.00,VWS V14.01,2013-04-26 11:49:00,
2013-04-26 07:54:00,50.7,33.2,30.40,North,360,7.0,12.0,51,0.00,,---,0.00,VWS V14.01,2013-04-26 11:54:00,
2013-04-26 07:59:00,51.0,33.5,30.41,North,360,3.0,13.0,51,0.00,,---,0.00,VWS V14.01,2013-04-26 11:59:00,
2013-04-26 08:04:00,51.3,33.8,30.41,North,360,10.0,13.0,51,0.00,,---,0.00,VWS V14.01,2013-04-26 12:04:00,
2013-04-26 08:10:00,51.7,33.7,30.41,North,360,6.0,13.0,50,0.00,,---,0.00,VWS V14.01,2013-04-26 12:10:00,
2013-04-26 08:15:00,51.9,33.4,30.42,North,360,9.0,13.0,49,0.00,,---,0.00,VWS V14.01,2013-04-26 12:15:00,
2013-04-26 08:20:00,52.3,34.2,30.42,North,360,10.0,13.0,50,0.00,,---,0.00,VWS V14.01,2013-04-26 12:20:00,
2013-04-26 08:25:00,52.5,34.4,30.42,North,360,7.0,13.0,50,0.00,,---,0.00,VWS V14.01,2013-04-26 12:25:00,
2013-04-26 08:30:00,52.7,34.6,30.42,North,360,3.0,13.0,50,0.00,,---,0.00,VWS V14.01,2013-04-26 12:30:00,
2013-04-26 08:35:00,53.1,35.5,30.42,North,360,4.0,13.0,51,0.00,,---,0.00,VWS V14.01,2013-04-26 12:35:00,
2013-04-26 08:40:00,53.5,35.3,30.42,North,360,3.0,13.0,50,0.00,,---,0.00,VWS V14.01,2013-04-26 12:40:00,
2013-04-26 08:45:00,53.8,35.1,30.43,North,360,10.0,13.0,49,0.00,,---,0.00,VWS V14.01,2013-04-26 12:45:00,
2013-04-26 08:50:00,54.1,35.9,30.43,North,360,9.0,13.0,50,0.00,,---,0.00,VWS V14.01,2013-04-26 12:50:00,
2013-04-26 08:55:00,54.4,35.7,30.43,North,360,5.0,13.0,49,0.00,,---,0.00,VWS V14.01,2013-04-26 12:55:00,
2013-04-26 09:00:00,54.9,36.1,30.43,North,360,2.0,13.0,49,0.00,,---,0.00,VWS V14.01,2013-04-26 13:00:00,
2013-04-26 09:06:00,55.4,36.6,30.43,North,360,3.0,6.0,49,0.00,,---,0.00,VWS V14.01,2013-04-26 13:06:00,
2013-04-26 09:11:00,55.7,36.3,30.43,North,360,10.0,10.0,48,0.00,,---,0.00,VWS V14.01,2013-04-26 13:11:00,
2013-04-26 09:16:00,55.8,36.4,30.43,North,360,11.0,13.0,48,0.00,,---,0.00,VWS V14.01,2013-04-26 13:16:00,
2013-04-26 09:21:00,56.0,36.1,30.44,North,360,4.0,13.0,47,0.00,,---,0.00,VWS V14.01,2013-04-26 13:21:00,
2013-04-26 09:26:00,56.6,36.6,30.43,North,360,1.0,13.0,47,0.00,,---,0.00,VWS V14.01,2013-04-26 13:26:00,
2013-04-26 09:31:00,56.6,35.5,30.43,North,360,7.0,15.0,45,0.00,,---,0.00,VWS V14.01,2013-04-26 13:31:00,
2013-04-26 09:36:00,56.6,36.1,30.43,North,360,2.0,15.0,46,0.00,,---,0.00,VWS V14.01,2013-04-26 13:36:00,
2013-04-26 09:41:00,57.2,36.6,30.43,North,360,6.0,15.0,46,0.00,,---,0.00,VWS V14.01,2013-04-26 13:41:00,
2013-04-26 09:46:00,57.8,36.0,30.43,North,360,11.0,15.0,44,0.00,,---,0.00,VWS V14.01,2013-04-26 13:46:00,
2013-04-26 09:51:00,57.6,35.3,30.43,North,360,2.0,15.0,43,0.00,,---,0.00,VWS V14.01,2013-04-26 13:51:00,
2013-04-26 09:56:00,57.9,35.0,30.44,North,360,10.0,15.0,42,0.00,,---,0.00,VWS V14.01,2013-04-26 13:56:00,
2013-04-26 10:01:00,58.2,34.6,30.44,North,360,5.0,15.0,41,0.00,,---,0.00,VWS V14.01,2013-04-26 14:01:00,
2013-04-26 10:07:00,58.4,34.8,30.43,North,360,7.0,10.0,41,0.00,,---,0.00,VWS V14.01,2013-04-26 14:07:00,
2013-04-26 10:12:00,58.5,34.9,30.43,North,360,6.0,11.0,41,0.00,,---,0.00,VWS V14.01,2013-04-26 14:12:00,
2013-04-26 10:17:00,58.6,34.4,30.44,North,360,5.0,15.0,40,0.00,,---,0.00,VWS V14.01,2013-04-26 14:17:00,
2013-04-26 10:22:00,58.9,34.0,30.44,North,360,11.0,16.0,39,0.00,,---,0.00,VWS V14.01,2013-04-26 14:22:00,
2013-04-26 10:27:00,58.9,34.6,30.43,North,360,7.0,16.0,40,0.00,,---,0.00,VWS V14.01,2013-04-26 14:27:00,
2013-04-26 10:32:00,59.0,34.1,30.43,North,360,6.0,16.0,39,0.00,,---,0.00,VWS V14.01,2013-04-26 14:32:00,
2013-04-26 10:37:00,59.5,35.8,30.43,North,360,5.0,16.0,41,0.00,,---,0.00,VWS V14.01,2013-04-26 14:37:00,
2013-04-26 10:42:00,59.7,34.7,30.43,North,360,2.0,16.0,39,0.00,,---,0.00,VWS V14.01,2013-04-26 14:42:00,
2013-04-26 10:47:00,59.8,34.8,30.43,North,360,13.0,16.0,39,0.00,,---,0.00,VWS V14.01,2013-04-26 14:47:00,
2013-04-26 10:52:00,59.8,34.8,30.43,North,360,3.0,16.0,39,0.00,,---,0.00,VWS V14.01,2013-04-26 14:52:00,
2013-04-26 10:57:00,60.0,34.3,30.43,North,360,6.0,16.0,38,0.00,,---,0.00,VWS V14.01,2013-04-26 14:57:00,
2013-04-26 11:02:00,60.1,33.1,30.43,North,360,5.0,16.0,36,0.00,,---,0.00,VWS V14.01,2013-04-26 15:02:00,
2013-04-26 11:07:00,60.5,34.1,30.43,North,360,5.0,8.0,37,0.00,,---,0.00,VWS V14.01,2013-04-26 15:07:00,
2013-04-26 11:12:00,60.8,33.7,30.43,North,360,6.0,13.0,36,0.00,,---,0.00,VWS V14.01,2013-04-26 15:12:00,
2013-04-26 11:17:00,61.0,33.2,30.44,North,360,11.0,13.0,35,0.00,,---,0.00,VWS V14.01,2013-04-26 15:17:00,
2013-04-26 11:22:00,60.8,33.0,30.43,North,360,6.0,13.0,35,0.00,,---,0.00,VWS V14.01,2013-04-26 15:22:00,
2013-04-26 11:27:00,60.7,32.9,30.43,North,360,7.0,13.0,35,0.00,,---,0.00,VWS V14.01,2013-04-26 15:27:00,
2013-04-26 11:32:00,60.9,33.8,30.43,North,360,7.0,13.0,36,0.00,,---,0.00,VWS V14.01,2013-04-26 15:32:00,
2013-04-26 11:37:00,61.0,33.9,30.42,North,360,4.0,13.0,36,0.00,,---,0.00,VWS V14.01,2013-04-26 15:37:00,
2013-04-26 11:42:00,61.4,34.9,30.42,North,360,4.0,13.0,37,0.00,,---,0.00,VWS V14.01,2013-04-26 15:42:00,
2013-04-26 11:47:00,61.8,33.9,30.42,North,360,3.0,13.0,35,0.00,,---,0.00,VWS V14.01,2013-04-26 15:47:00,
2013-04-26 11:52:00,62.3,34.3,30.41,North,360,3.0,13.0,35,0.00,,---,0.00,VWS V14.01,2013-04-26 15:52:00,
2013-04-26 11:58:00,62.5,33.8,30.41,North,360,10.0,13.0,34,0.00,,---,0.00,VWS V14.01,2013-04-26 15:58:00,
2013-04-26 12:03:00,62.7,32.4,30.41,North,360,5.0,6.0,32,0.00,,---,0.00,VWS V14.01,2013-04-26 16:03:00,
2013-04-26 12:08:00,63.1,33.6,30.41,North,360,8.0,9.0,33,0.00,,---,0.00,VWS V14.01,2013-04-26 16:08:00,
2013-04-26 12:13:00,63.4,33.8,30.41,North,360,1.0,9.0,33,0.00,,---,0.00,VWS V14.01,2013-04-26 16:13:00,
2013-04-26 12:18:00,63.8,34.9,30.40,North,360,3.0,9.0,34,0.00,,---,0.00,VWS V14.01,2013-04-26 16:18:00,
2013-04-26 13:53:00,65.8,33.5,30.40,North,360,1.0,1.0,30,0.00,,---,0.00,VWS V14.01,2013-04-26 17:53:00,
2013-04-26 13:58:00,66.6,34.2,30.40,North,360,10.0,10.0,30,0.00,,---,0.00,VWS V14.01,2013-04-26 17:58:00,
2013-04-26 14:03:00,66.3,34.0,30.39,North,360,5.0,7.0,30,0.00,,---,0.00,VWS V14.01,2013-04-26 18:03:00,
2013-04-26 14:08:00,66.1,35.4,30.39,North,360,6.0,11.0,32,0.00,,---,0.00,VWS V14.01,2013-04-26 18:08:00,
2013-04-26 14:13:00,66.4,34.9,30.39,North,360,0.0,11.0,31,0.00,,---,0.00,VWS V14.01,2013-04-26 18:13:00,
2013-04-26 14:18:00,66.8,34.4,30.39,North,360,3.0,11.0,30,0.00,,---,0.00,VWS V14.01,2013-04-26 18:18:00,
2013-04-26 14:23:00,66.9,32.8,30.39,North,360,1.0,11.0,28,0.00,,---,0.00,VWS V14.01,2013-04-26 18:23:00,
2013-04-26 14:28:00,66.7,33.5,30.39,North,360,1.0,11.0,29,0.00,,---,0.00,VWS V14.01,2013-04-26 18:28:00,
2013-04-26 14:33:00,66.7,34.3,30.38,North,360,1.0,11.0,30,0.00,,---,0.00,VWS V14.01,2013-04-26 18:33:00,
2013-04-26 14:38:00,66.9,34.5,30.38,North,360,2.0,11.0,30,0.00,,---,0.00,VWS V14.01,2013-04-26 18:38:00,
2013-04-26 14:43:00,67.4,34.1,30.38,North,360,5.0,13.0,29,0.00,,---,0.00,VWS V14.01,2013-04-26 18:43:00,
2013-04-26 14:48:00,67.3,34.8,30.37,North,360,3.0,13.0,30,0.00,,---,0.00,VWS V14.01,2013-04-26 18:48:00,
2013-04-26 14:53:00,67.4,35.7,30.37,North,360,4.0,13.0,31,0.00,,---,0.00,VWS V14.01,2013-04-26 18:53:00,
2013-04-26 14:58:00,67.4,35.7,30.37,North,360,5.0,13.0,31,0.00,,---,0.00,VWS V14.01,2013-04-26 18:58:00,
2013-04-26 15:03:00,67.5,35.0,30.37,North,360,12.0,12.0,30,0.00,,---,0.00,VWS V14.01,2013-04-26 19:03:00,
2013-04-26 15:08:00,67.4,34.9,30.37,North,360,3.0,14.0,30,0.00,,---,0.00,VWS V14.01,2013-04-26 19:08:00,
2013-04-26 15:14:00,67.4,34.9,30.36,North,360,2.0,14.0,30,0.00,,---,0.00,VWS V14.01,2013-04-26 19:14:00,
2013-04-26 15:19:00,67.2,34.8,30.36,North,360,3.0,14.0,30,0.00,,---,0.00,VWS V14.01,2013-04-26 19:19:00,
2013-04-26 15:24:00,67.1,34.7,30.36,North,360,4.0,14.0,30,0.00,,---,0.00,VWS V14.01,2013-04-26 19:24:00,
2013-04-26 15:29:00,66.9,34.5,30.36,North,360,2.0,14.0,30,0.00,,---,0.00,VWS V14.01,2013-04-26 19:29:00,
2013-04-26 15:34:00,67.0,35.4,30.36,North,360,1.0,14.0,31,0.00,,---,0.00,VWS V14.01,2013-04-26 19:34:00,
2013-04-26 15:39:00,67.7,36.0,30.36,North,360,3.0,14.0,31,0.00,,---,0.00,VWS V14.01,2013-04-26 19:39:00,
2013-04-26 15:44:00,67.9,35.3,30.36,North,360,0.0,14.0,30,0.00,,---,0.00,VWS V14.01,2013-04-26 19:44:00,
2013-04-26 15:49:00,68.2,35.6,30.36,North,360,3.0,14.0,30,0.00,,---,0.00,VWS V14.01,2013-04-26 19:49:00,
2013-04-26 15:54:00,67.7,35.2,30.36,North,360,5.0,14.0,30,0.00,,---,0.00,VWS V14.01,2013-04-26 19:54:00,
2013-04-26 15:59:00,67.3,35.7,30.36,North,360,9.0,14.0,31,0.00,,---,0.00,VWS V14.01,2013-04-26 19:59:00,
2013-04-26 16:04:00,67.9,35.3,30.35,North,360,1.0,6.0,30,0.00,,---,0.00,VWS V14.01,2013-04-26 20:04:00,
2013-04-26 16:09:00,68.4,34.9,30.35,North,360,4.0,10.0,29,0.00,,---,0.00,VWS V14.01,2013-04-26 20:09:00,
2013-04-26 16:14:00,68.5,35.0,30.34,North,360,2.0,10.0,29,0.00,,---,0.00,VWS V14.01,2013-04-26 20:14:00,
2013-04-26 16:19:00,68.8,36.1,30.34,North,360,2.0,10.0,30,0.00,,---,0.00,VWS V14.01,2013-04-26 20:19:00,
2013-04-26 16:24:00,69.0,35.5,30.34,North,360,1.0,10.0,29,0.00,,---,0.00,VWS V14.01,2013-04-26 20:24:00,
2013-04-26 16:29:00,69.0,36.3,30.34,North,360,0.0,10.0,30,0.00,,---,0.00,VWS V14.01,2013-04-26 20:29:00,
2013-04-26 16:34:00,69.1,36.4,30.34,North,360,0.0,10.0,30,0.00,,---,0.00,VWS V14.01,2013-04-26 20:34:00,
2013-04-26 16:40:00,68.9,35.4,30.33,North,360,7.0,10.0,29,0.00,,---,0.00,VWS V14.01,2013-04-26 20:40:00,
2013-04-26 16:45:00,68.4,34.9,30.33,North,360,4.0,10.0,29,0.00,,---,0.00,VWS V14.01,2013-04-26 20:45:00,
2013-04-26 16:50:00,68.3,35.7,30.33,North,360,2.0,10.0,30,0.00,,---,0.00,VWS V14.01,2013-04-26 20:50:00,
2013-04-26 16:55:00,68.1,35.5,30.33,North,360,5.0,10.0,30,0.00,,---,0.00,VWS V14.01,2013-04-26 20:55:00,
2013-04-26 17:00:00,67.9,35.3,30.32,North,360,3.0,10.0,30,0.00,,---,0.00,VWS V14.01,2013-04-26 21:00:00,
2013-04-26 17:05:00,67.8,35.3,30.32,North,360,2.0,4.0,30,0.00,,---,0.00,VWS V14.01,2013-04-26 21:05:00,
2013-04-26 17:10:00,68.0,35.4,30.32,North,360,4.0,7.0,30,0.00,,---,0.00,VWS V14.01,2013-04-26 21:10:00,
2013-04-26 17:15:00,68.1,36.3,30.32,North,360,2.0,7.0,31,0.00,,---,0.00,VWS V14.01,2013-04-26 21:15:00,
2013-04-26 17:20:00,68.0,36.3,30.32,North,360,6.0,9.0,31,0.00,,---,0.00,VWS V14.01,2013-04-26 21:20:00,
2013-04-26 17:25:00,67.7,35.2,30.32,North,360,3.0,9.0,30,0.00,,---,0.00,VWS V14.01,2013-04-26 21:25:00,
2013-04-26 17:30:00,67.6,37.5,30.32,North,360,2.0,9.0,33,0.00,,---,0.00,VWS V14.01,2013-04-26 21:30:00,
2013-04-26 17:35:00,67.7,37.6,30.32,North,360,3.0,9.0,33,0.00,,---,0.00,VWS V14.01,2013-04-26 21:35:00,
2013-04-26 17:41:00,67.5,35.8,30.33,North,360,2.0,9.0,31,0.00,,---,0.00,VWS V14.01,2013-04-26 21:41:00,
2013-04-26 17:46:00,67.3,36.5,30.33,North,360,4.0,9.0,32,0.00,,---,0.00,VWS V14.01,2013-04-26 21:46:00,
2013-04-26 17:51:00,67.4,35.7,30.33,North,360,4.0,9.0,31,0.00,,---,0.00,VWS V14.01,2013-04-26 21:51:00,
2013-04-26 17:56:00,67.2,35.6,30.32,North,360,5.0,9.0,31,0.00,,---,0.00,VWS V14.01,2013-04-26 21:56:00,
2013-04-26 18:01:00,67.0,37.0,30.33,North,360,3.0,9.0,33,0.00,,---,0.00,VWS V14.01,2013-04-26 22:01:00,
2013-04-26 18:06:00,66.8,36.0,30.33,North,360,4.0,9.0,32,0.00,,---,0.00,VWS V14.01,2013-04-26 22:06:00,
2013-04-26 18:11:00,66.8,37.6,30.33,North,360,4.0,9.0,34,0.00,,---,0.00,VWS V14.01,2013-04-26 22:11:00,
2013-04-26 18:16:00,66.8,36.0,30.32,North,360,2.0,9.0,32,0.00,,---,0.00,VWS V14.01,2013-04-26 22:16:00,
2013-04-26 18:21:00,66.8,36.8,30.32,North,360,3.0,9.0,33,0.00,,---,0.00,VWS V14.01,2013-04-26 22:21:00,
2013-04-26 18:26:00,67.0,37.0,30.32,North,360,5.0,9.0,33,0.00,,---,0.00,VWS V14.01,2013-04-26 22:26:00,
2013-04-26 18:31:00,66.9,36.1,30.32,North,360,4.0,9.0,32,0.00,,---,0.00,VWS V14.01,2013-04-26 22:31:00,
2013-04-26 18:36:00,66.8,36.8,30.32,North,360,2.0,9.0,33,0.00,,---,0.00,VWS V14.01,2013-04-26 22:36:00,
2013-04-26 18:41:00,67.1,37.1,30.32,North,360,3.0,9.0,33,0.00,,---,0.00,VWS V14.01,2013-04-26 22:41:00,
2013-04-26 18:46:00,67.2,37.9,30.33,North,360,2.0,9.0,34,0.00,,---,0.00,VWS V14.01,2013-04-26 22:46:00,
2013-04-26 18:51:00,66.9,36.9,30.33,North,360,2.0,9.0,33,0.00,,---,0.00,VWS V14.01,2013-04-26 22:51:00,
2013-04-26 18:57:00,66.6,37.4,30.33,North,360,3.0,9.0,34,0.00,,---,0.00,VWS V14.01,2013-04-26 22:57:00,
2013-04-26 19:02:00,66.5,37.3,30.33,North,360,2.0,9.0,34,0.00,,---,0.00,VWS V14.01,2013-04-26 23:02:00,
2013-04-26 19:07:00,66.4,37.2,30.33,North,360,0.0,1.0,34,0.00,,---,0.00,VWS V14.01,2013-04-26 23:07:00,
2013-04-26 19:12:00,66.4,36.5,30.34,North,360,0.0,1.0,33,0.00,,---,0.00,VWS V14.01,2013-04-26 23:12:00,
2013-04-26 19:17:00,66.3,36.4,30.33,North,360,2.0,3.0,33,0.00,,---,0.00,VWS V14.01,2013-04-26 23:17:00,
2013-04-26 19:22:00,66.1,36.9,30.33,North,360,1.0,3.0,34,0.00,,---,0.00,VWS V14.01,2013-04-26 23:22:00,
2013-04-26 19:27:00,66.0,36.8,30.33,North,360,1.0,3.0,34,0.00,,---,0.00,VWS V14.01,2013-04-26 23:27:00,
2013-04-26 19:32:00,65.8,37.4,30.33,North,360,0.0,3.0,35,0.00,,---,0.00,VWS V14.01,2013-04-26 23:32:00,
2013-04-26 19:37:00,65.8,38.1,30.34,North,360,0.0,3.0,36,0.00,,---,0.00,VWS V14.01,2013-04-26 23:37:00,
2013-04-26 19:42:00,65.7,40.7,30.34,North,360,0.0,3.0,40,0.00,,---,0.00,VWS V14.01,2013-04-26 23:42:00,
2013-04-26 19:47:00,65.5,40.6,30.34,North,360,0.0,3.0,40,0.00,,---,0.00,VWS V14.01,2013-04-26 23:47:00,
2013-04-26 19:52:00,65.3,39.7,30.34,North,360,1.0,3.0,39,0.00,,---,0.00,VWS V14.01,2013-04-26 23:52:00,
2013-04-26 20:05:00,64.9,40.7,30.34,North,360,0.0,0.0,41,0.00,,---,0.00,VWS V14.01,2013-04-27 00:05:00,
2013-04-26 20:10:00,64.6,41.0,30.34,North,360,0.0,0.0,42,0.00,,---,0.00,VWS V14.01,2013-04-27 00:10:00,
2013-04-26 20:15:00,64.2,41.3,30.34,North,360,0.0,0.0,43,0.00,,---,0.00,VWS V14.01,2013-04-27 00:15:00,
2013-04-26 20:20:00,63.9,41.6,30.35,North,360,0.0,0.0,44,0.00,,---,0.00,VWS V14.01,2013-04-27 00:20:00,
2013-04-26 20:26:00,63.7,42.0,30.35,North,360,0.0,0.0,45,0.00,,---,0.00,VWS V14.01,2013-04-27 00:26:00,
2013-04-26 20:31:00,63.4,41.1,30.35,North,360,0.0,0.0,44,0.00,,---,0.00,VWS V14.01,2013-04-27 00:31:00,
2013-04-26 20:36:00,63.0,40.8,30.35,North,360,0.0,0.0,44,0.00,,---,0.00,VWS V14.01,2013-04-27 00:36:00,
2013-04-26 20:41:00,62.7,40.5,30.36,North,360,0.0,0.0,44,0.00,,---,0.00,VWS V14.01,2013-04-27 00:41:00,
2013-04-26 20:46:00,62.5,41.5,30.36,North,360,0.0,0.0,46,0.00,,---,0.00,VWS V14.01,2013-04-27 00:46:00,
2013-04-26 20:51:00,62.4,41.4,30.36,North,360,0.0,0.0,46,0.00,,---,0.00,VWS V14.01,2013-04-27 00:51:00,
2013-04-26 20:56:00,62.3,42.4,30.36,North,360,0.0,0.0,48,0.00,,---,0.00,VWS V14.01,2013-04-27 00:56:00,
2013-04-26 21:01:00,62.1,42.2,30.36,North,360,0.0,0.0,48,0.00,,---,0.00,VWS V14.01,2013-04-27 01:01:00,
2013-04-26 21:06:00,61.8,41.9,30.36,North,360,0.0,0.0,48,0.00,,---,0.00,VWS V14.01,2013-04-27 01:06:00,
2013-04-26 21:11:00,61.6,42.8,30.36,North,360,0.0,0.0,50,0.00,,---,0.00,VWS V14.01,2013-04-27 01:11:00,
2013-04-26 21:16:00,61.4,43.1,30.36,North,360,0.0,0.0,51,0.00,,---,0.00,VWS V14.01,2013-04-27 01:16:00,
2013-04-26 21:21:00,61.2,43.0,30.36,North,360,0.0,0.0,51,0.00,,---,0.00,VWS V14.01,2013-04-27 01:21:00,
2013-04-26 21:26:00,60.9,43.2,30.36,North,360,0.0,0.0,52,0.00,,---,0.00,VWS V14.01,2013-04-27 01:26:00,
2013-04-26 21:31:00,60.7,39.3,30.36,North,360,0.0,0.0,45,0.00,,---,0.00,VWS V14.01,2013-04-27 01:31:00,
2013-04-26 21:36:00,61.0,39.0,30.36,North,360,0.0,0.0,44,0.00,,---,0.00,VWS V14.01,2013-04-27 01:36:00,
2013-04-26 21:41:00,61.0,42.8,30.36,North,360,0.0,0.0,51,0.00,,---,0.00,VWS V14.01,2013-04-27 01:41:00,
2013-04-26 21:47:00,60.5,43.3,30.36,North,360,0.0,0.0,53,0.00,,---,0.00,VWS V14.01,2013-04-27 01:47:00,
2013-04-26 21:52:00,60.1,42.9,30.36,North,360,0.0,0.0,53,0.00,,---,0.00,VWS V14.01,2013-04-27 01:52:00,
2013-04-26 21:57:00,59.7,43.5,30.36,North,360,0.0,0.0,55,0.00,,---,0.00,VWS V14.01,2013-04-27 01:57:00,
2013-04-26 22:02:00,59.3,44.1,30.36,North,360,0.0,0.0,57,0.00,,---,0.00,VWS V14.01,2013-04-27 02:02:00,
2013-04-26 22:07:00,59.0,42.9,30.36,North,360,0.0,0.0,55,0.00,,---,0.00,VWS V14.01,2013-04-27 02:07:00,
2013-04-26 22:12:00,58.9,41.8,30.36,North,360,0.0,0.0,53,0.00,,---,0.00,VWS V14.01,2013-04-27 02:12:00,
2013-04-26 22:17:00,58.9,42.3,30.36,North,360,0.0,0.0,54,0.00,,---,0.00,VWS V14.01,2013-04-27 02:17:00,
2013-04-26 22:22:00,58.9,40.8,30.35,North,360,0.0,0.0,51,0.00,,---,0.00,VWS V14.01,2013-04-27 02:22:00,
2013-04-26 22:27:00,59.1,41.5,30.35,North,360,0.0,0.0,52,0.00,,---,0.00,VWS V14.01,2013-04-27 02:27:00,
2013-04-26 22:32:00,59.2,42.1,30.35,North,360,0.0,0.0,53,0.00,,---,0.00,VWS V14.01,2013-04-27 02:32:00,
2013-04-26 22:37:00,59.2,42.6,30.35,North,360,0.0,0.0,54,0.00,,---,0.00,VWS V14.01,2013-04-27 02:37:00,
2013-04-26 22:42:00,59.1,42.0,30.35,North,360,0.0,0.0,53,0.00,,---,0.00,VWS V14.01,2013-04-27 02:42:00,
2013-04-26 22:47:00,59.0,41.9,30.35,North,360,0.0,0.0,53,0.00,,---,0.00,VWS V14.01,2013-04-27 02:47:00,
2013-04-26 22:53:00,59.0,41.9,30.35,North,360,0.0,0.0,53,0.00,,---,0.00,VWS V14.01,2013-04-27 02:53:00,
2013-04-26 22:58:00,58.9,41.8,30.35,North,360,0.0,0.0,53,0.00,,---,0.00,VWS V14.01,2013-04-27 02:58:00,
2013-04-26 23:03:00,58.9,41.8,30.35,North,360,0.0,0.0,53,0.00,,---,0.00,VWS V14.01,2013-04-27 03:03:00,
2013-04-26 23:08:00,58.9,41.8,30.35,North,360,0.0,0.0,53,0.00,,---,0.00,VWS V14.01,2013-04-27 03:08:00,
2013-04-26 23:13:00,58.9,41.3,30.35,North,360,0.0,0.0,52,0.00,,---,0.00,VWS V14.01,2013-04-27 03:13:00,
2013-04-26 23:18:00,58.9,41.8,30.34,North,360,0.0,0.0,53,0.00,,---,0.00,VWS V14.01,2013-04-27 03:18:00,
2013-04-26 23:23:00,58.8,41.2,30.34,North,360,0.0,0.0,52,0.00,,---,0.00,VWS V14.01,2013-04-27 03:23:00,
2013-04-26 23:28:00,58.7,42.1,30.34,North,360,0.0,0.0,54,0.00,,---,0.00,VWS V14.01,2013-04-27 03:28:00,
2013-04-26 23:33:00,58.5,42.9,30.34,North,360,0.0,0.0,56,0.00,,---,0.00,VWS V14.01,2013-04-27 03:33:00,
2013-04-26 23:38:00,58.1,41.1,30.34,North,360,2.0,3.0,53,0.00,,---,0.00,VWS V14.01,2013-04-27 03:38:00,
2013-04-26 23:43:00,58.1,41.6,30.34,North,360,1.0,4.0,54,0.00,,---,0.00,VWS V14.01,2013-04-27 03:43:00,
2013-04-26 23:48:00,58.0,41.9,30.34,North,360,3.0,4.0,55,0.00,,---,0.00,VWS V14.01,2013-04-27 03:48:00,
2013-04-26 23:53:00,58.0,41.9,30.34,North,360,2.0,4.0,55,0.00,,---,0.00,VWS V14.01,2013-04-27 03:53:00,
2013-04-26 23:58:00,58.0,41.5,30.34,North,360,1.0,4.0,54,0.00,,---,0.00,VWS V14.01,2013-04-27 03:58:00,